Language: 


Des rapports , des résumés tant et plus, au choix de chacun....


Données Historiques de Météogheer
Journalier Rapport pour Janvier 28, 2018 Unitée:  Impériale    Métrique   Les deux
Suivant Jour »
Journalier Hebdomadaire Mensuel Annuel Sur mesure
  Max: Min: Moyenne:
Température: 54 °F 45 °F 50.9 °F
Point de rosée: 51.8 °F 44.6 °F 50.4 °F
Humidité: 98% 91% 96%
Vent: 23.9mph 0mph 10.9mph
Rafales: 26.4mph - -
Vent- - WSW
Pression: 30.5 in 30.3 in -
Pluie: 0.01 in    
Historical Graphs
 
 
Données tabulaires pour Janvier 28, 2018
Heure Température Point de rosée Pression Vent Vent Rafales Humidité Pluie Taux (Horaire) Conditions
00:02 45 °F 44.6 °F 30.3 in SSW 8.5 mph 9.8 mph 98% 0 in
00:07 45 °F 44.6 °F 30.3 in SW 7.8 mph 9.8 mph 98% 0 in
00:12 45.1 °F 44.6 °F 30.3 in SSW 8.7 mph 9.8 mph 98% 0 in
00:17 45.1 °F 44.6 °F 30.3 in SW 7.4 mph 12.8 mph 98% 0 in
00:22 45.1 °F 44.6 °F 30.3 in SW 10.1 mph 12.8 mph 98% 0 in
00:27 45.3 °F 44.6 °F 30.3 in SSW 8.5 mph 10.7 mph 98% 0 in
00:32 45.3 °F 44.6 °F 30.3 in SW 10.5 mph 13 mph 98% 0 in
00:37 45.5 °F 46.4 °F 30.3 in WSW 8.5 mph 13 mph 98% 0 in
00:43 45.5 °F 46.4 °F 30.3 in WSW 7.8 mph 12.1 mph 98% 0 in
00:48 45.7 °F 46.4 °F 30.3 in WSW 7.6 mph 12.1 mph 98% 0 in
00:53 45.7 °F 46.4 °F 30.3 in SW 6 mph 11.9 mph 98% 0 in
00:58 45.9 °F 46.4 °F 30.3 in SW 6.5 mph 11.9 mph 98% 0 in
01:03 45.9 °F 46.4 °F 30.3 in SW 6.5 mph 8.5 mph 98% 0 in
01:08 46 °F 46.4 °F 30.3 in SSW 5.8 mph 8.7 mph 98% 0 in
01:13 46 °F 46.4 °F 30.3 in SW 6.9 mph 8.7 mph 98% 0 in
01:18 46 °F 46.4 °F 30.3 in SSW 6 mph 9.8 mph 98% 0 in
01:23 46 °F 46.4 °F 30.3 in SW 5.6 mph 9.8 mph 98% 0.01 in
01:28 46.2 °F 46.4 °F 30.3 in WSW 5.6 mph 9.6 mph 98% 0.01 in
01:33 46.2 °F 46.4 °F 30.3 in SW 7.2 mph 9.6 mph 98% 0.01 in
01:38 46.2 °F 46.4 °F 30.3 in WSW 5.6 mph 8.5 mph 98% 0.01 in
01:43 46.4 °F 46.4 °F 30.3 in WSW 6.3 mph 7.8 mph 98% 0.01 in
01:48 46.4 °F 46.4 °F 30.3 in SSW 5.6 mph 7.6 mph 98% 0.01 in
01:53 46.4 °F 46.4 °F 30.3 in WSW 5.4 mph 7.2 mph 98% 0.01 in
01:58 46.6 °F 46.4 °F 30.3 in SW 8.5 mph 8.5 mph 98% 0.01 in
02:03 46.6 °F 46.4 °F 30.3 in WSW 8.1 mph 8.7 mph 98% 0.01 in
02:08 46.6 °F 46.4 °F 30.3 in WSW 7.4 mph 8.7 mph 98% 0.01 in
02:13 46.6 °F 46.4 °F 30.3 in SW 8.5 mph 9.2 mph 98% 0.01 in
02:18 46.8 °F 46.4 °F 30.3 in WSW 7.8 mph 10.5 mph 98% 0.01 in
02:23 46.9 °F 48.2 °F 30.3 in SW 7.2 mph 12.8 mph 98% 0 in
02:28 47.1 °F 48.2 °F 30.3 in WSW 6.5 mph 12.8 mph 98% 0 in
02:33 47.1 °F 48.2 °F 30.3 in WSW 6.3 mph 12.1 mph 98% 0 in
02:34 47.1 °F 48.2 °F 30.3 in SW 6.5 mph 12.1 mph 98% 0 in
02:39 47.3 °F 48.2 °F 30.3 in SSW 8.7 mph 12.1 mph 98% 0 in
02:44 47.3 °F 48.2 °F 30.3 in WSW 7.6 mph 11 mph 98% 0 in
02:49 47.5 °F 48.2 °F 30.3 in SW 6 mph 11 mph 98% 0 in
02:54 47.7 °F 48.2 °F 30.3 in SW 5.8 mph 10.7 mph 98% 0 in
02:59 47.7 °F 48.2 °F 30.3 in WSW 6.5 mph 10.5 mph 98% 0 in
03:04 47.8 °F 48.2 °F 30.3 in WSW 6 mph 11.2 mph 98% 0 in
03:09 48 °F 48.2 °F 30.3 in SW 7.8 mph 11.2 mph 98% 0 in
03:14 48.2 °F 48.2 °F 30.3 in SW 10.3 mph 11 mph 98% 0 in
03:19 48.4 °F 48.2 °F 30.3 in SW 9.6 mph 14.5 mph 98% 0 in
03:24 48.6 °F 48.2 °F 30.3 in WSW 8.1 mph 14.5 mph 98% 0 in
03:29 48.6 °F 48.2 °F 30.4 in SSW 9.2 mph 10.7 mph 98% 0 in
03:35 48.6 °F 48.2 °F 30.4 in SW 5.4 mph 9.8 mph 98% 0 in
03:40 48.7 °F 48.2 °F 30.4 in WSW 5.6 mph 8.7 mph 98% 0 in
03:45 48.7 °F 48.2 °F 30.3 in WSW 8.5 mph 9.4 mph 98% 0 in
03:50 48.9 °F 48.2 °F 30.3 in WSW 8.1 mph 10.7 mph 98% 0 in
03:55 48.9 °F 48.2 °F 30.3 in WSW 10.3 mph 10.7 mph 98% 0 in
04:00 48.9 °F 48.2 °F 30.4 in WSW 8.1 mph 10.3 mph 98% 0 in
04:05 48.9 °F 48.2 °F 30.4 in SW 7.2 mph 9.6 mph 98% 0 in
04:10 48.9 °F 48.2 °F 30.4 in WSW 7.6 mph 9.4 mph 98% 0 in
04:15 49.1 °F 50 °F 30.4 in WSW 9.4 mph 9.4 mph 98% 0 in
04:20 49.1 °F 50 °F 30.4 in WSW 7.8 mph 11 mph 98% 0 in
04:25 49.3 °F 50 °F 30.4 in WSW 10.5 mph 11.4 mph 98% 0 in
04:30 49.5 °F 50 °F 30.4 in WSW 10.1 mph 11.4 mph 98% 0 in
04:35 49.5 °F 50 °F 30.4 in WSW 11 mph 13 mph 98% 0 in
04:40 49.6 °F 50 °F 30.4 in WSW 10.5 mph 13 mph 98% 0 in
04:45 49.8 °F 50 °F 30.3 in West 10.7 mph 13.4 mph 98% 0 in
04:50 50 °F 50 °F 30.3 in WSW 10.1 mph 13.4 mph 98% 0 in
04:55 50 °F 50 °F 30.3 in WSW 10.3 mph 12.1 mph 98% 0 in
05:00 50 °F 50 °F 30.4 in WSW 8.5 mph 12.1 mph 98% 0 in
05:05 50.2 °F 50 °F 30.4 in West 9.4 mph 13.2 mph 98% 0 in
05:11 50.2 °F 50 °F 30.4 in WSW 11 mph 13.2 mph 98% 0 in
05:16 50.4 °F 50 °F 30.4 in WSW 7.2 mph 14.1 mph 98% 0 in
05:21 50.4 °F 50 °F 30.4 in WSW 8.5 mph 14.1 mph 98% 0 in
05:26 50.4 °F 50 °F 30.4 in WSW 9.8 mph 13.2 mph 98% 0 in
05:31 50.4 °F 50 °F 30.4 in WSW 7.6 mph 12.1 mph 98% 0 in
05:36 50.4 °F 50 °F 30.4 in West 7.6 mph 11 mph 98% 0 in
05:41 50.4 °F 50 °F 30.4 in WSW 6.3 mph 10.5 mph 98% 0 in
05:46 50.5 °F 50 °F 30.4 in WSW 6.3 mph 10.5 mph 98% 0 in
05:51 50.5 °F 50 °F 30.4 in West 5.6 mph 10.5 mph 98% 0 in
05:56 50.5 °F 50 °F 30.4 in WSW 6.9 mph 10.7 mph 98% 0 in
06:01 50.5 °F 50 °F 30.4 in West 6.5 mph 10.7 mph 98% 0 in
06:06 50.7 °F 50 °F 30.4 in West 9.6 mph 10.1 mph 98% 0 in
06:11 50.7 °F 50 °F 30.4 in WNW 6 mph 10.1 mph 98% 0 in
06:16 50.7 °F 50 °F 30.4 in WSW 7.6 mph 10.3 mph 98% 0 in
06:21 50.7 °F 50 °F 30.4 in WSW 9.6 mph 10.7 mph 98% 0 in
06:26 50.7 °F 50 °F 30.4 in West 10.5 mph 10.7 mph 98% 0 in
06:31 50.9 °F 51.8 °F 30.4 in West 10.1 mph 12.8 mph 98% 0 in
06:36 50.9 °F 51.8 °F 30.4 in WSW 9.4 mph 13 mph 98% 0 in
06:37 50.9 °F 51.8 °F 30.4 in West 10.5 mph 13 mph 98% 0 in
06:42 50.9 °F 51.8 °F 30.4 in West 6.3 mph 13 mph 98% 0 in
06:48 50.9 °F 51.8 °F 30.4 in WSW 8.7 mph 10.5 mph 98% 0 in
06:53 50.9 °F 51.8 °F 30.4 in WSW 7.8 mph 12.1 mph 98% 0 in
06:58 50.7 °F 50 °F 30.4 in WSW 5.8 mph 12.1 mph 98% 0 in
07:03 50.7 °F 50 °F 30.4 in WSW 8.1 mph 11.2 mph 98% 0 in
07:08 50.7 °F 50 °F 30.4 in WSW 5.8 mph 10.3 mph 98% 0 in
07:13 50.7 °F 50 °F 30.4 in WSW 7.2 mph 9.8 mph 98% 0 in
07:18 50.7 °F 50 °F 30.4 in WSW 8.1 mph 9.8 mph 98% 0 in
07:23 50.7 °F 50 °F 30.4 in WSW 5.8 mph 8.9 mph 98% 0 in
07:28 50.7 °F 50 °F 30.4 in WSW 6.5 mph 8.7 mph 98% 0 in
07:33 50.9 °F 51.8 °F 30.4 in WSW 12.3 mph 14.1 mph 98% 0 in
07:38 51.1 °F 51.8 °F 30.4 in WSW 10.1 mph 14.1 mph 98% 0 in
07:43 51.1 °F 51.8 °F 30.4 in WSW 12.3 mph 14.8 mph 98% 0 in
07:48 51.1 °F 51.8 °F 30.4 in WSW 10.1 mph 14.8 mph 98% 0 in
07:53 51.1 °F 51.8 °F 30.4 in WSW 6.7 mph 15.2 mph 98% 0 in
07:58 51.1 °F 51.8 °F 30.4 in WSW 10.1 mph 15.2 mph 98% 0 in
08:03 51.1 °F 51.8 °F 30.4 in WSW 5.6 mph 11 mph 98% 0 in
08:08 50.9 °F 51.8 °F 30.4 in WSW 6.5 mph 11 mph 98% 0 in
08:13 50.9 °F 51.8 °F 30.4 in WSW 8.5 mph 10.1 mph 98% 0 in
08:18 50.9 °F 51.8 °F 30.4 in WSW 6.3 mph 12.3 mph 98% 0 in
08:23 50.7 °F 50 °F 30.4 in WSW 6.3 mph 12.3 mph 98% 0 in
08:28 50.7 °F 50 °F 30.4 in Calm   7.2 mph 98% 0 in
08:33 50.7 °F 50 °F 30.4 in SW 5.4 mph 7.4 mph 98% 0 in
08:38 50.7 °F 50 °F 30.4 in WSW 7.6 mph 8.7 mph 98% 0 in
08:43 50.7 °F 50 °F 30.4 in WSW 10.7 mph 10.7 mph 98% 0 in
08:48 50.7 °F 50 °F 30.4 in WSW 8.5 mph 10.7 mph 98% 0 in
08:53 50.9 °F 51.8 °F 30.4 in WSW 8.7 mph 13.2 mph 98% 0 in
08:58 50.9 °F 51.8 °F 30.4 in WSW 8.1 mph 13.2 mph 98% 0 in
09:03 51.1 °F 51.8 °F 30.4 in WSW 7.8 mph 12.1 mph 98% 0 in
09:08 51.1 °F 51.8 °F 30.4 in WSW 7.4 mph 10.7 mph 98% 0 in
09:13 51.1 °F 51.8 °F 30.4 in WSW 13 mph 13 mph 98% 0 in
09:18 51.1 °F 51.8 °F 30.4 in West 14.5 mph 15.4 mph 98% 0 in
09:24 51.3 °F 51.8 °F 30.4 in West 10.5 mph 15.4 mph 98% 0 in
09:29 51.3 °F 51.8 °F 30.4 in West 9.8 mph 15.4 mph 98% 0 in
09:34 51.4 °F 51.8 °F 30.4 in West 8.1 mph 14.8 mph 98% 0 in
09:39 51.4 °F 51.8 °F 30.4 in West 7.8 mph 12.8 mph 98% 0 in
09:44 51.4 °F 51.8 °F 30.4 in WSW 8.5 mph 15.4 mph 98% 0 in
09:49 51.4 °F 51.8 °F 30.4 in WSW 9.8 mph 15.4 mph 98% 0 in
09:54 51.4 °F 51.8 °F 30.4 in WSW 11.9 mph 13.2 mph 98% 0 in
09:59 51.6 °F 51.8 °F 30.5 in West 10.1 mph 13.2 mph 98% 0 in
10:04 51.6 °F 51.8 °F 30.5 in WSW 8.1 mph 11.9 mph 98% 0 in
10:09 51.6 °F 51.8 °F 30.5 in WSW 7.6 mph 10.7 mph 98% 0 in
10:14 51.8 °F 51.8 °F 30.4 in WSW 8.1 mph 10.7 mph 98% 0 in
10:19 51.8 °F 51.8 °F 30.4 in WSW 8.5 mph 13 mph 98% 0 in
10:24 51.8 °F 51.8 °F 30.4 in West 13.2 mph 13.4 mph 98% 0 in
10:29 52 °F 51.8 °F 30.4 in WSW 11 mph 13.4 mph 98% 0 in
10:34 52 °F 51.8 °F 30.4 in West 10.1 mph 13.6 mph 98% 0 in
10:39 52.2 °F 51.8 °F 30.4 in WSW 8.7 mph 13.6 mph 98% 0 in
10:45 52.2 °F 51.8 °F 30.4 in West 8.5 mph 13.2 mph 98% 0 in
10:50 52.3 °F 51.8 °F 30.4 in WSW 7.4 mph 12.8 mph 98% 0 in
10:55 52.5 °F 51.8 °F 30.4 in West 9.8 mph 13 mph 98% 0 in
11:00 52.5 °F 51.8 °F 30.4 in West 10.7 mph 16.8 mph 98% 0 in
11:05 52.5 °F 51.8 °F 30.4 in West 7.8 mph 16.8 mph 97% 0 in
11:10 52.7 °F 51.8 °F 30.4 in West 9.8 mph 15.7 mph 97% 0 in
11:15 52.7 °F 51.8 °F 30.4 in WSW 13.2 mph 15.7 mph 96% 0 in
11:20 52.7 °F 51.8 °F 30.4 in WSW 11 mph 17 mph 95% 0 in
11:25 52.9 °F 51.8 °F 30.4 in West 10.1 mph 19.9 mph 95% 0 in
11:30 53.1 °F 51.8 °F 30.4 in West 6.9 mph 19.9 mph 94% 0 in
11:35 53.1 °F 51.8 °F 30.4 in West 11 mph 15.2 mph 95% 0 in
11:40 53.2 °F 51.8 °F 30.4 in WSW 12.5 mph 19.2 mph 94% 0 in
11:45 53.4 °F 51.8 °F 30.4 in WSW 12.1 mph 22.1 mph 93% 0 in
11:50 53.4 °F 51.8 °F 30.4 in West 13 mph 22.1 mph 93% 0 in
11:55 53.6 °F 51.8 °F 30.4 in WSW 14.8 mph 21 mph 92% 0 in
12:00 53.6 °F 51.8 °F 30.4 in West 10.5 mph 21 mph 93% 0 in
12:06 53.6 °F 51.8 °F 30.4 in WSW 11 mph 20.8 mph 93% 0 in
12:11 53.8 °F 51.8 °F 30.4 in WSW 13.2 mph 20.8 mph 92% 0 in
12:16 54 °F 51.8 °F 30.4 in WSW 11.9 mph 19.7 mph 92% 0 in
12:21 54 °F 51.8 °F 30.4 in West 13 mph 22.4 mph 92% 0 in
12:26 54 °F 51.8 °F 30.4 in WSW 14.8 mph 22.4 mph 92% 0 in
12:31 54 °F 51.8 °F 30.4 in West 11.2 mph 18.1 mph 92% 0 in
12:36 54 °F 51.8 °F 30.4 in West 10.3 mph 22.1 mph 92% 0 in
12:41 53.8 °F 51.8 °F 30.4 in West 9.8 mph 22.1 mph 92% 0 in
12:46 54 °F 51.8 °F 30.4 in West 15.4 mph 21.9 mph 92% 0 in
12:51 53.8 °F 51.8 °F 30.4 in West 17.2 mph 21.9 mph 92% 0 in
12:56 53.8 °F 51.8 °F 30.4 in West 12.8 mph 21 mph 93% 0 in
13:01 53.8 °F 51.8 °F 30.4 in West 11 mph 17 mph 93% 0 in
13:06 53.8 °F 51.8 °F 30.4 in West 17.4 mph 26.4 mph 93% 0 in
13:11 53.8 °F 51.8 °F 30.4 in WSW 13.6 mph 26.4 mph 93% 0 in
13:16 53.8 °F 51.8 °F 30.4 in West 14.5 mph 20.8 mph 93% 0 in
13:21 53.8 °F 51.8 °F 30.4 in West 10.7 mph 17.7 mph 93% 0 in
13:26 53.6 °F 51.8 °F 30.4 in West 19.9 mph 20.8 mph 93% 0 in
13:31 53.4 °F 51.8 °F 30.4 in West 18.8 mph 20.8 mph 93% 0 in
13:36 53.4 °F 51.8 °F 30.4 in West 13 mph 20.4 mph 93% 0 in
13:41 53.2 °F 51.8 °F 30.4 in West 14.8 mph 22.4 mph 93% 0 in
13:46 53.2 °F 51.8 °F 30.4 in West 16.8 mph 23 mph 93% 0 in
13:51 53.2 °F 51.8 °F 30.4 in WSW 15.2 mph 23 mph 93% 0 in
13:56 53.2 °F 51.8 °F 30.4 in West 13.4 mph 19.5 mph 93% 0 in
14:01 53.1 °F 51.8 °F 30.4 in WSW 19.2 mph 22.8 mph 93% 0 in
14:06 53.2 °F 51.8 °F 30.4 in WSW 17.7 mph 22.8 mph 93% 0 in
14:11 53.4 °F 51.8 °F 30.4 in West 8.5 mph 19.5 mph 93% 0 in
14:16 53.6 °F 51.8 °F 30.4 in West 8.5 mph 17.7 mph 93% 0 in
14:21 53.8 °F 51.8 °F 30.4 in West 8.5 mph 8.5 mph 93% 0 in
14:26 53.8 °F 51.8 °F 30.4 in West 8.5 mph 8.5 mph 92% 0 in
14:31 53.8 °F 51.8 °F 30.4 in West 8.5 mph 8.5 mph 92% 0 in
14:36 53.4 °F 51.8 °F 30.4 in West 8.5 mph 8.5 mph 92% 0 in
14:42 53.4 °F 51.8 °F 30.4 in West 8.5 mph 8.5 mph 92% 0 in
14:47 53.2 °F 51.8 °F 30.4 in West 8.5 mph 8.5 mph 93% 0 in
14:52 53.2 °F 51.8 °F 30.4 in West 8.5 mph 8.5 mph 93% 0 in
14:57 53.2 °F 51.8 °F 30.4 in West 8.5 mph 8.5 mph 93% 0 in
15:02 53.1 °F 51.8 °F 30.4 in West 8.5 mph 8.5 mph 93% 0 in
15:07 53.2 °F 51.8 °F 30.4 in WSW 10.1 mph 10.1 mph 93% 0 in
15:12 53.4 °F 51.8 °F 30.4 in WSW 10.1 mph 10.1 mph 93% 0 in
15:17 53.4 °F 51.8 °F 30.4 in WSW 10.1 mph 10.1 mph 92% 0 in
15:22 53.4 °F 51.8 °F 30.4 in WSW 18.6 mph 18.6 mph 92% 0 in
15:27 53.4 °F 51.8 °F 30.4 in WSW 22.4 mph 22.4 mph 92% 0 in
15:32 53.2 °F 50 °F 30.4 in West 23.9 mph 23.9 mph 92% 0 in
15:37 53.1 °F 50 °F 30.4 in WSW 21.9 mph 23.9 mph 92% 0 in
15:42 53.1 °F 50 °F 30.4 in West 19.9 mph 23.9 mph 92% 0 in
15:47 53.2 °F 51.8 °F 30.4 in West 19.9 mph 21.9 mph 93% 0 in
15:52 53.2 °F 50 °F 30.4 in West 20.4 mph 20.4 mph 92% 0 in
15:57 53.2 °F 50 °F 30.4 in West 18.6 mph 20.4 mph 92% 0 in
16:03 53.2 °F 51.8 °F 30.4 in West 18.6 mph 20.4 mph 93% 0 in
16:08 53.2 °F 51.8 °F 30.4 in West 18.6 mph 18.6 mph 93% 0 in
16:13 53.2 °F 50 °F 30.4 in West 18.6 mph 18.6 mph 92% 0 in
16:18 53.1 °F 50 °F 30.4 in West 18.6 mph 18.6 mph 92% 0 in
16:23 53.1 °F 50 °F 30.4 in West 18.6 mph 18.6 mph 92% 0 in
16:28 53.1 °F 50 °F 30.4 in West 18.6 mph 18.6 mph 92% 0 in
16:33 52.9 °F 50 °F 30.4 in West 18.6 mph 18.6 mph 92% 0 in
16:38 52.9 °F 50 °F 30.4 in WSW 22.6 mph 22.6 mph 92% 0 in
16:43 52.7 °F 50 °F 30.4 in West 19.9 mph 22.6 mph 91% 0 in
16:48 52.7 °F 50 °F 30.4 in West 17.2 mph 22.6 mph 92% 0 in
16:53 52.5 °F 50 °F 30.4 in WSW 12.5 mph 19.9 mph 93% 0 in
16:58 52.5 °F 50 °F 30.4 in WSW 15.4 mph 23.7 mph 93% 0 in
17:03 52.3 °F 50 °F 30.4 in WSW 17.2 mph 23.7 mph 94% 0 in
17:08 52.3 °F 50 °F 30.4 in WSW 12.5 mph 17.7 mph 94% 0 in
17:13 52.2 °F 50 °F 30.4 in WSW 20.4 mph 22.8 mph 94% 0 in
17:18 52.2 °F 50 °F 30.4 in WSW 17.2 mph 22.8 mph 94% 0 in
17:23 52.2 °F 50 °F 30.4 in WSW 13.2 mph 23.9 mph 94% 0 in
17:28 52.2 °F 50 °F 30.4 in WSW 17.9 mph 23.9 mph 94% 0 in
17:34 52 °F 50 °F 30.4 in WSW 10.3 mph 18.8 mph 94% 0 in
17:39 52 °F 50 °F 30.4 in WSW 17.2 mph 18.8 mph 94% 0 in
17:44 51.8 °F 50 °F 30.4 in WSW 17.7 mph 20.1 mph 94% 0 in
17:49 51.8 °F 50 °F 30.4 in WSW 17.7 mph 23 mph 94% 0 in
17:54 51.6 °F 50 °F 30.4 in WSW 12.8 mph 23 mph 95% 0 in
17:59 51.6 °F 50 °F 30.4 in WSW 15.2 mph 19.5 mph 95% 0 in
18:04 51.6 °F 50 °F 30.4 in WSW 15.2 mph 19.7 mph 95% 0 in
18:09 51.6 °F 51.8 °F 30.4 in WSW 10.1 mph 19.7 mph 96% 0 in
18:14 51.6 °F 51.8 °F 30.4 in WSW 11 mph 17.2 mph 96% 0 in
18:19 51.4 °F 50 °F 30.4 in WSW 10.5 mph 15.2 mph 96% 0 in
18:24 51.4 °F 50 °F 30.4 in WSW 10.1 mph 13.2 mph 96% 0 in
18:28 51.4 °F 50 °F 30.4 in WSW 10.7 mph 13.9 mph 96% 0 in
18:33 51.4 °F 50 °F 30.4 in WSW 9.8 mph 14.5 mph 96% 0 in
18:38 51.4 °F 50 °F 30.4 in WSW 12.3 mph 14.5 mph 97% 0 in
18:43 51.4 °F 50 °F 30.4 in WSW 11 mph 12.8 mph 97% 0 in
18:48 51.4 °F 50 °F 30.4 in WSW 7.8 mph 12.8 mph 97% 0 in
18:53 51.4 °F 50 °F 30.4 in West 10.1 mph 10.7 mph 97% 0 in
18:58 51.4 °F 50 °F 30.4 in WSW 9.8 mph 10.7 mph 97% 0 in
19:03 51.4 °F 50 °F 30.4 in WSW 10.3 mph 11.2 mph 97% 0 in
19:08 51.4 °F 50 °F 30.4 in West 13.6 mph 13.6 mph 97% 0 in
19:13 51.4 °F 50 °F 30.4 in WSW 12.1 mph 13.9 mph 97% 0 in
19:18 51.6 °F 51.8 °F 30.4 in WSW 13.2 mph 13.9 mph 97% 0 in
19:23 51.6 °F 51.8 °F 30.4 in WSW 14.8 mph 14.8 mph 97% 0 in
19:28 51.6 °F 51.8 °F 30.4 in WSW 10.5 mph 14.8 mph 97% 0 in
19:33 51.6 °F 51.8 °F 30.4 in WSW 11 mph 15.4 mph 97% 0 in
19:38 51.6 °F 51.8 °F 30.4 in WSW 12.8 mph 15.4 mph 97% 0 in
19:43 51.6 °F 51.8 °F 30.4 in WSW 14.3 mph 16.3 mph 97% 0 in
19:49 51.6 °F 51.8 °F 30.4 in WSW 10.3 mph 16.3 mph 97% 0 in
19:54 51.4 °F 50 °F 30.4 in WSW 14.5 mph 19.7 mph 97% 0 in
19:59 51.4 °F 51.8 °F 30.4 in WSW 17.7 mph 19.7 mph 98% 0 in
20:04 51.4 °F 51.8 °F 30.4 in WSW 10.5 mph 17.7 mph 98% 0 in
20:09 51.4 °F 51.8 °F 30.4 in WSW 15.7 mph 17.7 mph 98% 0 in
20:14 51.4 °F 51.8 °F 30.4 in West 12.3 mph 17.7 mph 98% 0 in
20:19 51.4 °F 51.8 °F 30.4 in WSW 16.1 mph 17.7 mph 98% 0 in
20:24 51.4 °F 51.8 °F 30.4 in West 14.1 mph 17 mph 98% 0 in
20:29 51.3 °F 51.8 °F 30.4 in WSW 9.6 mph 17 mph 98% 0 in
20:34 51.3 °F 51.8 °F 30.4 in WSW 10.5 mph 17.2 mph 98% 0 in
20:39 51.3 °F 51.8 °F 30.4 in WSW 15.4 mph 19.9 mph 98% 0 in
20:44 51.3 °F 51.8 °F 30.4 in WSW 13 mph 20.6 mph 98% 0 in
20:49 51.3 °F 51.8 °F 30.4 in WSW 15.9 mph 20.6 mph 98% 0 in
20:54 51.3 °F 51.8 °F 30.4 in WSW 15.4 mph 17.9 mph 98% 0 in
20:59 51.1 °F 51.8 °F 30.4 in WSW 12.8 mph 16.6 mph 98% 0 in
21:04 51.1 °F 51.8 °F 30.4 in WSW 9.8 mph 15.7 mph 98% 0 in
21:09 51.1 °F 51.8 °F 30.4 in WSW 12.8 mph 15.7 mph 98% 0 in
21:14 51.1 °F 51.8 °F 30.4 in WSW 13.2 mph 15.4 mph 98% 0 in
21:20 51.1 °F 51.8 °F 30.4 in WSW 11 mph 15.4 mph 98% 0 in
21:25 51.1 °F 51.8 °F 30.4 in WSW 12.5 mph 15.2 mph 98% 0 in
21:30 51.1 °F 51.8 °F 30.4 in SW 8.7 mph 15.2 mph 98% 0 in
21:35 51.1 °F 51.8 °F 30.4 in WSW 13 mph 14.8 mph 98% 0 in
21:40 51.1 °F 51.8 °F 30.4 in WSW 13.2 mph 14.8 mph 98% 0 in
21:45 51.1 °F 51.8 °F 30.4 in WSW 12.3 mph 14.8 mph 98% 0 in
21:50 51.3 °F 51.8 °F 30.4 in WSW 8.1 mph 15.4 mph 98% 0 in
21:56 51.3 °F 51.8 °F 30.4 in WSW 10.5 mph 15.4 mph 98% 0 in
22:01 51.3 °F 51.8 °F 30.4 in WSW 11 mph 13.2 mph 98% 0 in
22:06 51.4 °F 51.8 °F 30.4 in WSW 11 mph 13 mph 98% 0 in
22:11 51.4 °F 51.8 °F 30.4 in WSW 12.1 mph 13.6 mph 98% 0 in
22:16 51.4 °F 51.8 °F 30.4 in WSW 12.8 mph 14.1 mph 98% 0 in
22:21 51.4 °F 51.8 °F 30.4 in SW 8.1 mph 14.1 mph 98% 0 in
22:26 51.4 °F 51.8 °F 30.4 in WSW 11 mph 12.8 mph 98% 0 in
22:31 51.4 °F 51.8 °F 30.4 in WSW 10.7 mph 12.5 mph 98% 0 in
22:36 51.4 °F 51.8 °F 30.4 in WSW 7.8 mph 12.1 mph 98% 0 in
22:41 51.6 °F 51.8 °F 30.4 in WSW 8.1 mph 13.2 mph 98% 0 in
22:46 51.4 °F 51.8 °F 30.4 in SW 9.2 mph 13.2 mph 98% 0 in
22:51 51.6 °F 51.8 °F 30.4 in WSW 10.3 mph 12.5 mph 98% 0 in
22:56 51.6 °F 51.8 °F 30.4 in WSW 9.8 mph 16.8 mph 98% 0 in
23:01 51.6 °F 51.8 °F 30.4 in WSW 12.8 mph 18.1 mph 98% 0 in
23:06 51.6 °F 51.8 °F 30.4 in West 13 mph 18.1 mph 98% 0 in
23:11 51.6 °F 51.8 °F 30.4 in WSW 14.8 mph 20.1 mph 98% 0 in
23:16 51.8 °F 51.8 °F 30.4 in WSW 13.9 mph 20.1 mph 98% 0 in
23:22 52 °F 51.8 °F 30.4 in WSW 14.1 mph 19.7 mph 98% 0 in
23:27 52 °F 51.8 °F 30.4 in WSW 13.6 mph 19.7 mph 97% 0 in
23:32 52 °F 51.8 °F 30.4 in West 17.7 mph 18.1 mph 97% 0 in
23:37 52 °F 51.8 °F 30.4 in WSW 12.8 mph 19.9 mph 97% 0 in
23:42 52 °F 51.8 °F 30.4 in WSW 8.1 mph 19.9 mph 97% 0 in
23:47 52 °F 51.8 °F 30.4 in West 14.3 mph 17.7 mph 97% 0 in
23:52 52 °F 51.8 °F 30.4 in WSW 8.5 mph 17.7 mph 97% 0 in
23:57 52 °F 51.8 °F 30.4 in WSW 10.3 mph 17.2 mph 97% 0 in
Données Historique de Météo Turbie

Mise a jour : 24/05/2018 15:30:13
Généré par Cumulus 1.9.4 (1099)